Montpelier, VT

8:28 PM EDT on August 25, 2016 (GMT -0400)
Knapp State

Weather History for KMPV - December, 2013

Change the Weather History Date:

Friday, December 27, 2013

  Actual Average Record
Temperature  
Mean Temperature 23 °F 19 °F  
Max Temperature 27 °F 28 °F 56 °F (1949)
Min Temperature 18 °F 10 °F -24 °F (1968)
Degree Days  
Heating Degree Days 42 46  
Month to date heating degree days 1178 1115  
Since 1 July heating degree days 3082 2961  
Cooling Degree Days 0 0  
Month to date cooling degree days 0  
Year to date cooling degree days 264  
Moisture  
Dew Point 18 °F    
Average Humidity 74    
Maximum Humidity 92    
Minimum Humidity 55    
Precipitation  
Precipitation T in 0.08 in 1.56 in (1969)
Month to date precipitation 1.61 2.45  
Year to date precipitation 36.70 36.98  
Sea Level Pressure  
Sea Level Pressure 30.20 in    
Wind  
Wind Speed 5 mph (WSW)    
Max Wind Speed 15 mph    
Max Gust Speed 26 mph    
Visibility 8 miles    
Events Snow    
T = Trace of Precipitation, MM = Missing Value Source: NWS Daily Summary

Daily Weather History Graph

Daily Weather History Graph

Search for Another Location

Airport or City:

Trip Planner

Search our weather history database for the weather conditions in past years. The results will help you decide how hot, cold, wet, or windy it might be!

Date:

Astronomy

Dec. 27, 2013 Rise Set
Actual Time 7:24 AM EST 4:18 PM EST
Civil Twilight 6:51 AM EST 4:51 PM EST
Nautical Twilight 6:15 AM EST 5:28 PM EST
Astronomical Twilight 5:39 AM EST 6:03 PM EST
Moon 1:46 AM EST (12/27) 12:33 PM EST (12/27)
Length of Visible Light 9h 59m
Length of Day
8h 53m
Waning Crescent, 28% of the Moon is Illuminated
Dec 27
Waning Crescent
Jan 1
New
Jan 7
First Quarter
Jan 15
Full
Jan 24
Last Quarter

Hourly Weather History & Observations

Time (EST) Temp. Windchill Dew Point Humidity Pressure Visibility Wind Dir Wind Speed Gust Speed Precip Events Conditions
12:48 AM 21.2 °F - 19.4 °F 93% 30.14 in 6.0 mi Calm Calm - N/A   Overcast
12:51 AM 21.0 °F - 19.0 °F 92% 30.21 in 6.0 mi Calm Calm - N/A   Overcast
1:21 AM 21.2 °F - 19.4 °F 93% 30.14 in 9.0 mi Calm Calm - N/A   Overcast
1:51 AM 19.9 °F - 18.0 °F 92% 30.22 in 8.0 mi Calm Calm - N/A   Overcast
2:51 AM 19.0 °F - 17.1 °F 92% 30.23 in 9.0 mi Calm Calm - N/A   Overcast
3:36 AM 19.4 °F - 17.6 °F 93% 30.16 in 10.0 mi Calm Calm - N/A   Overcast
3:51 AM 19.9 °F - 18.0 °F 92% 30.23 in 10.0 mi Calm Calm - N/A   Overcast
4:51 AM 19.9 °F - 18.0 °F 92% 30.23 in 10.0 mi Calm Calm - N/A   Overcast
5:51 AM 19.0 °F - 18.0 °F 96% 30.22 in 9.0 mi Calm Calm - N/A   Overcast
6:51 AM 19.9 °F - 17.1 °F 89% 30.22 in 9.0 mi Calm Calm - N/A   Overcast
7:51 AM 25.0 °F 16.3 °F 19.0 °F 78% 30.22 in 4.0 mi SSW 8.1 mph - 0.00 in Snow Light Snow
8:02 AM 24.8 °F 16.1 °F 19.4 °F 80% 30.16 in 2.0 mi SW 8.1 mph - 0.00 in Snow Light Snow
8:16 AM 24.8 °F 16.1 °F 19.4 °F 80% 30.17 in 4.0 mi WSW 8.1 mph - 0.00 in Snow Light Snow
8:33 AM 24.8 °F 17.9 °F 19.4 °F 80% 30.16 in 2.5 mi SW 5.8 mph - 0.00 in Snow Light Snow
8:40 AM 24.8 °F 16.1 °F 19.4 °F 80% 30.17 in 6.0 mi WSW 8.1 mph - 0.00 in Snow Light Snow
8:51 AM 25.0 °F 15.5 °F 19.0 °F 78% 30.23 in 5.0 mi WSW 9.2 mph 16.1 mph 0.00 in Snow Light Snow
9:51 AM 25.0 °F 18.1 °F 19.0 °F 78% 30.24 in 3.0 mi West 5.8 mph - 0.00 in Snow Light Snow
10:00 AM 24.8 °F 15.3 °F 17.6 °F 74% 30.17 in 6.0 mi West 9.2 mph - 0.00 in Snow Light Snow
10:09 AM 26.6 °F 17.5 °F 17.6 °F 69% 30.17 in 10.0 mi West 9.2 mph - 0.00 in   Scattered Clouds
10:51 AM 26.1 °F 15.0 °F 15.1 °F 63% 30.23 in 10.0 mi WNW 12.7 mph 17.3 mph 0.00 in   Scattered Clouds
11:51 AM 27.0 °F 18.0 °F 12.9 °F 56% 30.22 in 10.0 mi West 9.2 mph 20.7 mph N/A   Overcast
12:51 PM 26.1 °F 15.6 °F 12.9 °F 58% 30.19 in 10.0 mi WNW 11.5 mph 21.9 mph N/A   Overcast
1:51 PM 27.0 °F 19.5 °F 15.1 °F 61% 30.18 in 10.0 mi West 6.9 mph - N/A   Overcast
2:51 PM 26.1 °F 15.6 °F 15.1 °F 63% 30.19 in 10.0 mi WSW 11.5 mph 16.1 mph 0.00 in   Overcast
3:51 PM 26.1 °F 16.2 °F 18.0 °F 71% 30.19 in 5.0 mi West 10.4 mph 16.1 mph 0.00 in Snow Light Snow
4:51 PM 26.1 °F 15.0 °F 17.1 °F 69% 30.20 in 10.0 mi SW 12.7 mph - 0.00 in   Overcast
5:51 PM 26.1 °F 21.9 °F 18.0 °F 71% 30.22 in 5.0 mi WSW 3.5 mph 16.1 mph 0.00 in Snow Light Snow
6:51 PM 26.1 °F 21.9 °F 18.0 °F 71% 30.22 in 10.0 mi West 3.5 mph - 0.00 in   Overcast
6:58 PM 26.6 °F 22.6 °F 17.6 °F 69% 30.16 in 8.0 mi WSW 3.5 mph - N/A   Overcast
7:43 PM 24.8 °F 17.9 °F 19.4 °F 80% 30.17 in 4.0 mi West 5.8 mph - 0.00 in Snow Light Snow
7:51 PM 25.0 °F 19.3 °F 19.9 °F 81% 30.23 in 8.0 mi West 4.6 mph - 0.00 in   Overcast
8:51 PM 26.1 °F 16.8 °F 18.0 °F 71% 30.24 in 10.0 mi WNW 9.2 mph - N/A   Overcast
9:37 PM 24.8 °F - 17.6 °F 74% 30.17 in 10.0 mi Calm Calm - N/A   Overcast
9:51 PM 24.1 °F - 18.0 °F 77% 30.22 in 10.0 mi Calm Calm - N/A   Overcast
10:48 PM 23.0 °F 18.4 °F 17.6 °F 80% 30.15 in 10.0 mi Variable 3.5 mph - N/A   Scattered Clouds
10:51 PM 23.0 °F 17.0 °F 17.1 °F 78% 30.20 in 10.0 mi SSW 4.6 mph - N/A   Partly Cloudy
11:51 PM 24.1 °F 19.7 °F 14.0 °F 65% 30.18 in 10.0 mi SE 3.5 mph - N/A   Clear